IRIDIUM 33 DEB, 39781

Orbit data source: Space-Track

IRIDIUM 33 DEB, 39781 is space debris in LEO originally from a launch on Sun, 14 Sep 1997 UTC launched from the Tyuratam Missile And Space Complex (TTMTR). The debris from Iridium 33, an American commercial communications satellite, has been tracked extensively since its accidental collision with the defunct Russian satellite Cosmos 2251 in 2009. This event, occurring at high speed in low Earth orbit (LEO), generated thousands of pieces of space debris, significantly increasing the risk of further collisions. The Iridium 33 debris cloud has impacted space traffic management and orbital debris mitigation strategies, making it a subject of ongoing study in space situational awareness.

Loading next visibility...
IRIDIUM 33 DEB details
Identifier
39781, 1997-051AAN
Orbit
LEO
Last TLE update1 day ago
Origin
Flag of USIridium (US)
ManufacturerUnknown
MissionSpacecraft
Bus & MotorUnknown
MassUnknown
Launch date (UTC)
1997-09-14 (27 years ago)
Launch vehicleUnknown
Launch site
Tyuratam Missile And Space Complex (TTMTR)
Object type
Payload
Rocket body
Debris
Shape & HBRUnknown
Radar Cross SectionSmall (<0.1 m²)

Expand to show TLE details & history

TLE from 1 day ago
0 IRIDIUM 33 DEB
1 39781U 97051AAN 24360.39533104  .00032496  00000-0  14771-1 0  9998
2 39781  86.3696  42.2248 0195897 304.9394  64.1511 14.11950388 31171
Epoch: 2024-12-25T09:29Z
Definitive object data (Epoch: 2024-12-25T09:29:16.601Z)
Latitude11.05946°
Longitude166.22271°
Altitude795.474 km
Speed7.487 km/s
True Right ascension02h 51m 43s
True Declination10° 59' 43"
Sunlit
Object was in full shadow at TLE epoch
Visualization TLE readout
Latitude-20.34792°
Longitude-13.56145°
Altitude885.926 km
Speed7.395 km/s
Apparent Right ascension17h 28m 53s
Apparent Declination-40° 43' 39"
Sunlit
Object is in daylight
Visualization observer readout
Local Sidereal Time09:33:52
Azimuth111.858° ESE
Elevation-44.288°
Doppler factor1
Orbital elements
Apogee altitude991.291 km
Perigee altitude708.109 km
Semi-major axis7,227.837 km
Eccentricity0.0195897
Inclination86.3696°
RAAN42.2248°
Arg. of periapsis304.9394°
True anomaly66.19267°
Mean anomaly64.1511°
Eccentric anomaly65.16975°
Mean motion3.53208 °/min
BSTAR0.014771
Orbital period101.92 mins
Loading maneuver chart data...

IRIDIUM 33 DEB Visibility forecast

Observer location: undefined°, undefined

Span
Click to sort rows by Start time (UTC) header in descending order
Start Az.
Max El. time (UTC)
Max El. Az.
Max El.
End time (UTC)
End Az.
10 mins2024-12-26 14:56:43.678Z3.61° NNE2024-12-26 15:01:43.678Z116.376° SE43.514°2024-12-26 15:06:43.678Z170.796° S
5 mins2024-12-26 16:40:43.678Z306.789° NW2024-12-26 16:42:43.678Z285.369° WNW15.955°2024-12-26 16:45:43.678Z253.887° W
7 mins2024-12-27 02:23:43.678Z120.384° SE2024-12-27 02:26:43.678Z81.209° E21.362°2024-12-27 02:30:43.678Z33.49° NE
9 mins2024-12-27 04:04:43.678Z211.536° SW2024-12-27 04:08:43.678Z277.983° WNW35.215°2024-12-27 04:13:43.678Z347.921° N
|